Retour au catalogue

CZ-6A DEB

ActifPO
NORAD 54988·DEBRIS·🇨🇳 China

Lancé Nov 11, 2022 depuis Taiyuan Satellite Launch Center

Loading…

Prochains Passages (prochaines 24 heures)

TLE

FraisSource: Space-Track

Époque: Sep 14, 2026, 08:11 UTC

1 54988U 22151UD  26257.34162393  .00005686  00000-0  12186-2 0  9993
2 54988  99.1313  29.9723 0069091 112.8868 247.9641 14.57642732201189

Suivez CZ-6A DEB en temps réel avec AllMySat

Download on the App Store